Погода в Василевке

Украина / Днепропетровская область     48°14′02″N   36°30′49″E
темп.,
°C
ветер,
м/с
пор.,
м/с
влажн.,
%
обл.,
%
осадки,
мм/ч
давл.,
гПа
погр.,
м
11 апреля, вс
вс1100:00+6ссв38645 0.0 1025154
03:00+5ссв496514 0.0 1025190
06:00+5ссв4116574 0.0 1026288
09:00+9св7124917 0.0 1026822
12:00+13ссв8103656 0.0 10241185
15:00+15ссв81036100 0.0 10231365
18:00+13ссв71046100 0.0 10231115
21:00+11ссв61152100 0.0 1023785
12 апреля, пн
пн1200:00+9ссв61157100 0.0 1022705
03:00+9св5978100 0.0 1021509
06:00+8св4890100 0.0 1021312
09:00+11всв4682100 0.0 1020506
12:00+16юв456399 0.0 1019985
15:00+15ююз237097 0.0 1019729
18:00+15юз336855 0.0 1019625
21:00+11зюз348199 0.0 102172
13 апреля, вт
вт1300:00+11юз2380100 0.0 1021107
03:00+10юз3584100 0.0 1021221
06:00+9зюз2485100 0.0 1021174
09:00+10юз2280100 0.0 1022264
12:00+12ю2271100 0.0 1021496
15:00+13юв2265100 0.0 1021576
18:00+14юв226090 0.0 1020828
21:00+12вюв2371100 0.0 102071
14 апреля, ср
ср1400:00+11ю357995 0.0 1020139
03:00+10ююз348381 0.0 1020153
06:00+8ю33905 0.0 102042
09:00+12ююв337021 0.0 1020500
12:00+16ююв45518 0.0 10191294
15:00+17ююв454787 0.0 10171814
18:00+16ююв3653100 0.0 1017246
21:00+12ююз376823 0.0 1018228
15 апреля, чт
чт1500:00+9ююз34721 0.0 101777
03:00+7ююв117645 0.0 101710
06:00+7ю2276100 0.0 101723
09:00+12юв2253100 0.0 1016384
12:00+15ю5654100 0.0 10151266
15:00+14ююз6759100 0.4 10141372
18:00+13ю466448 0.1 1014872
21:00+10ююв357868 0.1 1013108